{"data":{"norad_id":49740,"intl_designator":"2021-115S","name":"STARLINK-3226","alt_names":[],"object_type":"PAYLOAD","status":"ACTIVE","operator":null,"country":"US","launch_date":"2021-12-02","launch_site_code":"AFETR","launch_vehicle":null,"mission":null,"orbit_class":"UNKNOWN","rcs_meters":null,"size_class":null,"mass_kg":null,"dimensions":null,"purposes":["comms"],"wikipedia_slug":null,"has_3d_model":false,"image_url":null,"decayed_at":null,"tle_current":{"epoch":"2026-09-19T18:30:00.607968Z","epoch_age_seconds":70875,"freshness":"FRESH","line1":"1 49740U 21115S   26262.77084037  .00000082  00000+0  14411-4 0  9992","line2":"2 49740  53.1612 343.1564 0000996  78.8115 281.2999 15.31705763265038","mean_motion":15.31705763,"eccentricity":9.96e-5,"inclination_deg":53.1612,"raan_deg":343.1564,"arg_perigee_deg":78.8115,"mean_anomaly_deg":281.2999,"bstar":1.4411e-5,"rev_number":26503,"period_min":94.012834239104,"perigee_km":470.04066963871,"apogee_km":471.40496251407,"semimajor_km":6848.8598160764,"source":"CELESTRAK","updated_at":"2026-09-20T09:00:39.406184Z"}}}